SCP
0 0 0 0 0 0 0 0 0 0 0 0 0 0 0 0 0 0 0 0 0 0 0 0 0 0 0 1 1 1 1 1 1 1 1 1 1 2 1 1 1 1 0 0
0 0 0 0 0 0 0 0 0 0 0 0 0 0 0 0 0 0 0 0 0 0 0 0 0 0 0 0 1 1 1 1 1 1 1 1 2 2 1 1 1 1 1 1
0 0 0 0 0 0 0 0 0 0 0 0 0 0 0 0 0 0 0 0 0 0 0 0 0 0 0 0 1 1 1 1 1 1 1 1 2 2 1 1 1 1 1 1
0 0 0 0 0 0 0 0 0 0 0 0 0 0 0 0 0 0 0 0 0 0 0 0 0 0 0 0 1 1 1 1 1 1 2 2 2 1 2 2 1 1 1 1
0 0 0 0 0 0 0 0 0 0 0 0 0 0 0 0 0 0 0 0 0 0 0 0 0 0 0 0 1 1 1 1 1 1 2 2 2 1 2 2 2 1 1 1
0 0 0 0 0 0 0 0 0 0 0 0 0 0 0 0 0 0 0 0 0 0 0 0 0 0 0 0 1 2 1 1 1 1 1 2 2 2 2 2 2 2 1 1
0 0 0 0 0 0 0 0 0 0 0 0 0 0 0 0 0 0 0 0 0 0 0 0 0 0 0 0 1 1 1 1 1 1 1 2 2 2 2 2 2 2 1 1
0 0 0 0 0 0 0 0 0 0 0 0 0 0 0 0 0 0 0 0 0 0 0 0 0 0 0 0 0 1 1 1 1 1 1 1 2 2 2 2 2 2 2 1
0 0 0 0 0 0 0 0 0 0 0 0 0 0 0 0 0 0 0 0 0 0 0 0 0 0 0 0 0 0 1 1 1 1 0 1 1 2 2 2 2 2 2 1
0 0 0 0 0 0 0 0 0 0 0 0 0 0 0 0 0 0 0 0 0 0 0 0 0 0 0 0 0 0 0 0 0 0 0 0 0 1 1 1 1 1 1 1
0 0 0 0 0 0 0 0 0 0 0 0 0 0 0 0 0 0 0 0 0 0 0 0 0 0 0 0 0 0 0 0 0 0 0 0 0 0 1 1 1 1 1 1
0 0 0 0 0 0 0 0 0 0 0 0 0 0 0 0 0 0 0 0 0 0 0 0 0 0 0 0 0 0 0 0 0 0 0 0 0 0 1 1 1 1 1 1
0 0 0 0 0 0 0 0 0 0 0 0 0 0 0 0 0 0 0 0 0 0 0 0 0 0 0 0 0 0 0 0 0 0 0 0 0 0 0 0 0 0 0 1
0 0 0 0 0 0 0 0 0 0 0 0 0 0 0 0 0 0 0 0 0 0 0 0 0 0 0 0 0 0 0 0 0 0 0 0 0 0 0 0 0 0 0 0
0 0 0 0 0 0 0 0 0 0 0 0 0 0 0 0 0 0 0 0 0 0 0 0 0 0 0 0 0 0 0 0 0 0 0 0 0 0 0 0 0 0 0 0
0 0 0 0 0 0 0 0 0 0 0 0 0 0 0 0 0 0 0 0 0 0 0 0 0 0 0 0 0 0 0 0 0 0 0 0 0 0 0 0 0 0 0 0
0 0 0 0 0 0 0 0 0 0 0 0 0 0 0 0 0 0 0 0 0 0 0 0 0 0 0 0 0 0 0 0 0 0 0 0 0 0 0 0 0 0 0 0
0 0 0 0 0 0 0 0 0 0 0 0 0 0 0 0 0 0 0 0 0 0 0 0 0 0 0 0 0 0 0 0 0 0 0 0 0 0 0 0 0 0 0 0
0 0 0 0 0 0 0 0 0 0 0 0 0 0 0 0 0 0 0 0 0 0 0 0 0 0 0 0 0 0 0 0 0 0 0 0 0 0 0 0 0 0 0 0
0 0 0 0 0 0 0 0 0 0 0 0 0 0 0 0 0 0 0 0 0 0 0 0 0 0 0 0 0 0 0 0 0 0 0 0 0 0 0 0 0 0 0 0
0 0 0 0 0 0 0 0 0 0 0 0 0 0 0 0 0 0 0 0 0 0 0 0 0 0 0 0 0 0 0 0 0 0 0 0 0 0 0 0 0 0 0 0
0 0 0 0 0 0 0 0 0 0 0 0 0 0 0 0 0 0 0 0 0 0 0 0 0 0 0 0 0 0 0 0 0 0 0 0 0 0 0 0 0 0 0 0
0 0 0 0 0 0 0 0 0 0 0 0 0 0 0 0 0 0 0 0 0 0 0 0 0 0 0 0 0 0 0 0 0 0 0 0 0 0 0 0 0 0 0 0
0 0 0 0 0 0 0 0 0 0 0 0 0 0 0 0 0 0 0 0 0 0 0 0 0 0 0 0 0 0 0 0 0 0 0 0 0 0 0 0 0 0 0 0
0 0 0 0 0 0 0 0 0 0 0 0 0 0 0 0 0 0 0 0 0 0 0 0 0 0 0 0 0 0 0 0 0 0 0 0 0 0 0 0 0 0 0 0
0 0 0 0 0 0 0 0 0 0 0 0 0 0 0 0 0 0 0 0 0 0 0 0 0 0 0 0 0 0 0 0 0 0 0 0 0 0 0 0 0 0 0 0
Wind_Speed
5 5 7 8 8 6 6 6 7 5 2 4 8 10 9 6 6 6 5 4 4 3 3 3 3 3 3 4 4 5 5 6 5 4 4 4 3 3 2 2 3 3 3 3
5 9 7 4 5 7 8 9 7 4 1 3 6 10 9 7 7 6 5 4 4 2 2 2 3 3 3 4 4 4 5 5 5 4 3 3 3 3 2 2 2 3 3 3
8 3 4 6 7 7 8 8 7 4 3 4 4 8 7 5 6 5 5 5 3 3 3 3 3 3 3 3 4 4 4 5 5 5 3 3 3 2 2 2 2 2 3 3
7 5 3 5 6 6 7 4 5 5 3 3 3 6 6 5 6 6 5 4 4 3 3 3 3 3 3 2 2 3 4 4 4 5 5 6 4 4 4 3 3 3 3 3
4 4 5 6 5 5 2 1 3 4 4 5 5 5 7 4 5 5 4 3 2 2 3 3 3 3 2 2 2 2 3 3 4 4 5 5 4 3 3 3 4 4 3 3
4 1 3 4 2 2 1 0 2 3 2 6 8 7 6 4 5 5 4 4 3 3 3 3 3 3 3 2 2 2 3 3 3 4 4 5 5 4 4 4 4 4 3 3
5 5 3 1 2 3 3 2 1 2 5 7 4 6 6 1 3 4 5 5 4 3 3 3 3 3 3 2 1 1 2 3 3 3 4 5 5 5 5 5 5 4 3 3
6 6 8 5 5 5 7 5 4 4 4 3 3 7 4 2 4 4 5 5 4 3 3 3 3 2 2 2 1 1 1 2 3 3 3 3 4 4 3 4 3 3 3 3
5 4 2 4 2 3 5 6 3 1 1 3 6 5 2 2 2 2 3 4 2 2 2 3 2 2 2 1 1 1 1 1 1 2 2 2 3 3 3 3 3 2 2 2
2 2 3 3 2 4 3 3 2 3 3 5 6 6 4 3 3 3 3 3 2 2 3 3 2 2 1 1 1 1 1 1 1 1 1 2 2 2 2 2 2 2 2 2
3 3 2 3 8 8 6 5 5 4 4 4 4 3 1 3 5 4 3 3 3 2 2 2 1 2 2 2 2 1 1 1 1 1 1 1 1 2 2 2 2 2 2 3
4 3 4 5 3 2 6 7 7 5 5 5 4 4 2 4 4 4 3 3 2 2 2 2 1 1 2 2 2 2 2 1 1 1 1 1 1 2 2 2 2 2 2 2
4 4 2 2 2 2 3 5 6 4 3 5 6 6 2 4 3 3 3 2 2 2 2 2 1 1 1 1 1 1 1 1 1 1 2 1 1 1 1 2 2 1 1 2
3 4 6 8 4 5 6 7 7 6 6 7 9 7 3 1 1 1 2 2 2 2 2 1 1 1 1 0 1 1 1 1 1 1 1 1 1 1 1 1 1 1 1 1
2 5 5 6 5 4 6 9 10 11 10 9 9 9 7 5 4 3 2 2 2 2 1 1 1 1 0 0 0 1 1 1 1 1 1 1 1 1 1 1 1 1 1 1
2 3 3 6 5 5 7 9 12 13 12 11 10 12 6 3 2 2 2 2 2 1 1 0 0 0 0 0 0 0 1 1 1 1 1 1 1 1 1 1 1 1 1 1
4 4 3 5 3 2 10 11 12 10 9 10 13 11 4 3 3 3 2 2 2 1 1 1 1 1 1 1 0 0 0 1 1 1 1 1 1 1 0 0 0 1 1 1
6 4 3 2 2 10 8 5 8 10 10 9 7 6 5 4 3 2 2 2 2 1 1 1 0 0 0 1 1 1 1 1 1 1 1 1 0 0 0 1 1 1 1 1
6 6 3 3 6 8 6 3 5 8 9 8 8 7 3 1 1 1 1 2 2 1 1 1 1 1 1 1 1 1 1 1 1 1 0 0 0 0 0 1 1 1 1 1
4 5 5 5 6 8 6 3 1 2 7 5 6 6 3 3 3 4 1 2 2 2 2 1 1 2 2 1 1 1 1 1 1 1 1 1 0 1 1 1 1 1 1 1
5 6 8 8 7 8 3 2 4 5 7 2 3 3 4 5 4 3 3 2 2 2 2 2 2 2 1 1 2 1 0 0 1 1 1 1 1 1 1 1 1 0 1 1
9 7 8 7 8 9 3 5 6 5 0 0 1 2 3 2 1 3 3 2 2 2 2 1 1 1 1 1 2 1 0 1 1 1 1 1 1 1 0 1 1 0 1 1
8 8 6 8 7 2 4 4 2 1 1 1 1 1 3 2 2 2 1 2 2 2 2 1 2 1 1 1 1 1 1 1 1 1 1 1 1 1 1 1 1 0 1 1
3 1 3 3 5 3 3 2 1 0 1 1 1 2 3 2 2 2 2 2 2 1 1 1 2 1 0 0 0 0 0 1 0 1 1 1 1 1 1 1 1 1 1 2
4 3 3 4 3 2 3 3 2 1 0 1 1 1 3 3 3 2 2 2 2 1 1 1 1 1 1 0 0 0 1 1 1 1 1 1 1 1 1 1 1 2 2 2
4 5 6 6 5 4 4 3 2 2 2 2 2 1 1 2 3 2 2 2 1 1 1 1 1 1 1 1 1 0 1 1 1 1 1 1 1 1 1 1 2 3 3 4
Wind_Direction
198 215 215 216 223 257 285 267 258 257 248 247 243 257 260 239 233 234 233 231 226 216 175 154 152 145 147 150 159 169 173 171 164 166 170 170 173 165 156 146 147 153 147 141
207 227 230 229 232 242 260 266 265 268 293 276 272 268 258 234 227 222 223 227 219 207 180 144 137 145 162 163 169 175 176 173 169 171 175 166 158 155 157 147 150 155 149 147
221 215 217 229 232 235 241 250 260 271 306 254 275 278 235 217 213 217 216 217 211 193 186 163 155 161 159 168 179 183 177 174 171 164 151 138 129 128 149 166 171 166 156 151
236 235 231 220 232 239 244 247 267 273 275 263 230 280 250 208 206 210 214 204 199 189 170 153 153 164 167 165 160 173 172 168 167 165 169 171 175 174 176 169 168 164 158 158
227 206 218 223 225 230 242 337 268 261 258 276 237 252 266 204 206 202 187 165 149 147 149 146 150 156 137 116 129 155 158 164 166 172 177 180 185 175 153 153 164 166 165 166
255 254 236 236 230 208 140 12 286 261 238 253 227 223 265 211 200 171 160 147 132 114 110 110 112 120 107 97 106 140 154 162 166 173 180 182 181 171 162 171 176 176 169 168
229 223 210 214 181 184 185 157 185 214 215 237 190 216 248 198 115 132 143 133 122 114 109 107 105 106 106 103 108 135 150 167 166 174 188 192 185 180 181 185 187 180 175 178
199 222 197 201 205 190 205 202 194 213 227 249 199 225 238 109 86 81 99 107 105 108 112 115 116 115 120 119 123 132 156 172 174 183 193 195 187 184 185 187 187 188 185 185
201 222 170 190 234 204 197 217 248 270 300 269 239 233 214 105 121 124 113 110 114 111 102 103 103 100 104 123 135 136 143 148 171 188 184 181 183 186 182 177 178 180 176 172
241 220 193 166 200 255 240 191 166 197 213 244 239 225 223 187 187 143 136 144 145 107 85 77 73 64 67 76 83 96 112 132 131 139 156 156 169 172 164 160 176 179 176 169
250 179 190 187 201 200 197 200 202 211 227 223 248 239 93 138 156 159 156 134 131 128 120 106 80 59 54 49 48 50 80 99 109 119 123 131 148 153 152 163 175 178 175 174
205 172 211 226 228 249 211 204 189 192 227 231 252 253 57 80 95 115 122 116 116 122 121 113 96 73 63 52 45 38 36 55 83 111 114 116 115 128 146 162 166 163 173 181
175 169 173 242 228 233 240 232 223 225 218 220 228 248 73 72 72 90 118 124 124 125 124 124 122 106 77 54 46 36 43 39 47 73 95 102 113 128 140 148 149 154 164 173
204 198 205 217 218 189 220 226 218 207 219 233 234 251 266 251 197 169 156 162 163 164 157 152 149 137 97 73 87 62 42 65 74 89 100 112 132 139 139 140 140 149 159 173
179 224 235 256 272 236 235 223 216 220 223 228 247 250 253 246 232 213 188 177 180 174 167 174 184 170 122 63 73 69 50 63 82 100 108 107 79 81 100 121 133 146 164 187
181 222 235 259 257 252 255 243 228 230 232 243 260 266 269 263 246 228 202 189 204 205 211 247 294 294 285 355 287 82 66 59 84 118 118 84 87 94 104 116 123 153 185 191
183 179 210 245 244 271 252 230 220 223 224 224 242 253 265 260 231 221 195 177 202 223 227 239 244 239 271 281 189 144 54 67 85 100 100 102 114 127 135 146 154 201 216 207
182 186 207 231 201 235 242 197 208 222 230 231 246 256 242 237 227 219 169 176 203 208 216 247 278 300 54 69 70 66 68 88 97 95 84 71 87 142 205 212 217 243 241 232
194 183 196 209 236 258 266 238 207 218 242 230 239 252 255 115 15 299 97 125 154 158 148 126 115 109 89 92 86 82 84 87 86 62 17 330 250 249 260 251 260 266 271 268
203 189 200 216 229 240 252 225 200 179 259 243 222 230 214 141 226 240 165 116 114 110 106 100 102 97 91 84 96 101 88 73 22 345 329 318 280 238 245 256 270 285 263 254
187 203 214 224 237 254 248 194 131 186 247 239 197 202 178 199 223 182 138 112 109 106 99 92 94 101 101 100 107 117 103 317 326 348 348 331 316 289 279 299 295 272 257 255
187 195 208 210 226 244 187 152 187 221 272 149 183 190 179 177 128 129 131 127 119 112 105 104 104 93 82 105 121 145 272 344 24 11 354 327 313 297 303 302 295 265 213 227
204 200 197 201 217 230 164 186 208 121 169 215 184 168 147 153 163 146 140 140 143 142 138 124 130 119 79 97 128 176 301 46 40 359 327 308 310 311 293 249 249 259 224 233
234 232 196 232 248 243 231 242 253 162 194 206 165 161 154 173 187 183 181 180 173 162 156 140 141 156 220 75 93 184 15 60 81 275 295 299 291 309 320 292 255 236 226 234
206 185 201 235 263 283 263 252 241 232 162 159 169 166 169 170 195 199 203 199 192 188 173 146 165 191 216 180 178 167 135 135 214 257 264 282 265 260 264 270 262 263 255 244
191 188 195 223 215 213 241 243 206 195 219 212 185 193 184 179 198 206 208 201 186 193 184 172 190 205 233 217 244 220 180 183 197 244 256 258 259 252 253 270 298 294 282 287